Find Starlink 5577

NORAD ID: 55751 Int'l Des: 2023-028 Owner: SPXS Country: US Constellation: starlink operational
LEOCIRCULAR

当前视图

正在加载3D地球...

About Starlink 5577

Starlink 5577 (NORAD 55751) is a starlink constellation satellite (v1.5) launched Mar 3, 2023 by SPXS of US. It operates in LEO, CIRCULAR orbit with a mass of 305.00 kg.

关于 Starlink 5577

正在加载描述...

即将过境

Passes for default location (London). Set your location on the main map for personalized predictions.

高度历史

Loading altitude history...

两行轨道根数

1 55751U 23028L 26178.14758154 -.00000288 00000-0 -16346-4 0 9991
2 55751 70.0005 328.5650 0003111 269.4427 90.6375 14.98330438182437
Epoch: Jun 27, 2026 • Age: 12 hours

当前状态

高度 578.9 km
速度 7.57 km/s
星下点 41.06°N, 17.23°W
发射日期 Mar 3, 2023
运行时间 3.3 years
类型 internet

技术详情

分类 Payload
质量 305.00 kg
干质量 290.00 kg
总质量 305.00 kg
长度 0.20 m
直径 2.80 m
跨度 9.00 m
形状 Box + pan
制造商 SPXS
平台类型 Starlink
阶段状态 In Orbit
所有者/国家 SPXS/US

Most Searched